Find Yaogan 35 05 zu 03 xing

NORAD ID: 53763 Int'l Des: 2022-109 Owner: ZZB Country: CN Constellation: yaogan operational
LEOCIRCULAR

リアルタイム位置

3D地球を読み込み中...

Yaogan 35 05 zu 03 xingについて

説明を読み込み中...

次回通過

Passes for default location (London). Set your location on the main map for personalized predictions.

高度履歴

Loading altitude history...

軌道要素

1 53763U 22109D 26105.96315990 .00004980 00000-0 21028-3 0 9991
2 53763 34.9925 28.3951 0002110 35.8139 324.2717 15.22647558200888
Epoch: Apr 15, 2026 • Age: 6 hours

現在のステータス

高度 496.2 km
速度 7.62 km/s
衛星直下点 -3.14°S, 97.12°E
打ち上げ日 Sep 6, 2022
運用期間 3.6 years
タイプ military

技術仕様

分類 Payload
質量 300.00 kg
乾燥質量 300.00 kg
総質量 300.00 kg
長さ 2.50 m
直径 2.50 m
スパン 5.00 m
形状 Box + 2 Pan
製造者 DFHZ
フェーズステータス In Orbit
所有者/国 ZZB/CN

Most Searched